Location: Most
(50.5133°N, 13.6207°E)
Time: 09:43:31
(UTC+02:00)

ISS - Pass Details

Date: 14 July 2018
Orbit: 402 x 408 km, 51.6° (Epoch: 17 July)

Event Time Altitude Azimuth Distance (km) Brightness Sun altitude
Exits shadow 01:07:45 17° 102° (ESE) 1,114 -1.8 -17.8°
Drops below altitude 10° 01:08:52 10° 88° (E) 1,469 -1.0 -17.8°
Sets 01:11:10 0° 75° (ENE) 2,334 0.2 -17.8°
